Retour au catalogue

STARLINK-32706

ActifCommunicationsVLEO
NORAD 62308·PAYLOAD·🇺🇸 United States

Lancé Dec 13, 2024 depuis Vandenberg Space Force Base

Loading…

Prochains Passages (prochaines 24 heures)

TLE

FraisSource: CelesTrak SupGP

Époque: Sep 15, 2026, 03:18 UTC

1 62308C 24239H   26258.13798611  .00026906  00000+0  79500-3 0  2582
2 62308  53.1608  31.0672 0001090  94.7283 133.0516 15.34375561    16

Suivez STARLINK-32706 en temps réel avec AllMySat

Download on the App Store